Location: Alafon
(8.4500°N, 4.2333°E)
Time: 18:36:34
(UTC+00:00)

A-11 Canister half - Pass Details

Date: 14 August 2021
Orbit: 1515 x 1685 km, 47.2° (Epoch: 19 September)

Event Time Altitude Azimuth Distance (km) Brightness Sun altitude
Rises 20:17:41 0° 329° (NNW) 4,893 12.3 -33.3°
Reaches altitude 10° 20:21:01 10° 335° (NNW) 3,920 11.6 -34.0°
Enters shadow 20:30:01 47° 37° (NE) 2,113 9.5 -36.0°
Maximum altitude 20:30:38 48° 47° (NE) 2,102 - -36.2°
Drops below altitude 10° 20:40:15 10° 119° (ESE) 3,931 - -38.3°
Sets 20:43:34 0° 124° (SE) 4,908 - -39.1°
